{"data":{"norad_id":49146,"intl_designator":"2021-082S","name":"STARLINK-3116","alt_names":[],"object_type":"PAYLOAD","status":"ACTIVE","operator":null,"country":"US","launch_date":"2021-09-14","launch_site_code":"AFWTR","launch_vehicle":null,"mission":null,"orbit_class":"UNKNOWN","rcs_meters":null,"size_class":null,"mass_kg":null,"dimensions":null,"purposes":["comms"],"wikipedia_slug":null,"has_3d_model":false,"image_url":null,"decayed_at":null,"tle_current":{"epoch":"2026-09-19T01:07:14.867040Z","epoch_age_seconds":166884,"freshness":"FRESH","line1":"1 49146U 21082S   26262.04669985  .00000378  00000+0  40218-4 0  9998","line2":"2 49146  69.9993 148.3404 0002642 270.7195  89.3661 14.97522732276550","mean_motion":14.97522732,"eccentricity":0.0002642,"inclination_deg":69.9993,"raan_deg":148.3404,"arg_perigee_deg":270.7195,"mean_anomaly_deg":89.3661,"bstar":4.0218e-5,"rev_number":27655,"period_min":96.158807424367,"perigee_km":572.71652121343,"apogee_km":576.39032283242,"semimajor_km":6952.6904220229,"source":"CELESTRAK","updated_at":"2026-09-20T09:00:39.249074Z"}}}